一网星座-0345星 (ONEWEB-0345 )

导读 | 豆包AI

ONEWEB-0345是英国卫星公司OneWeb(一网)低轨互联网星座的组网卫星,于2021年9月14日发射。它属于OneWeb一期星座,单星重约147.5公斤,配备Ku/Ka波段天线,依托霍尔推进器维持轨道,设计寿命5年。作为全球低轨卫星互联网计划的一员,它为偏远地区提供高速宽带接入,助力全球网络覆盖,推动卫星通信普惠发展。

Basic Information
目录编号:
49211
目录名称:
ONEWEB-0345
国际标识:
2021-083AB
轨道中心:
EARTH
卫星名称:
一网星座-0345星
卫星全名:
一网星座-0345星 (ONEWEB-0345 )
卫星状态:
在轨 (已飞行1691 天)
发射日期:
2021-09-14 UTC
国别 :
英国 (GB)
星等 :
--
Orbit Information
数据来源 国际轨道数据 AOE轨道数据
星历时间 2026-05-02T08:34:28+0800
9小时前
查看轨道信息
2026-05-01T10:00:00+0800
1天前
查看轨道信息
半长轴 7587.898km 7587.912km
偏心率 0.0001416 0.0001243
轨道倾角 87.896° 87.897°
近地点辐角 88.002° 79.152°
升交点赤经 329.417° 329.604°
平近点角 272.127° 155.876°
近地点 1208.686km 1208.831km
远地点 1210.836km 1210.719km
周期 109.633分钟 109.633分钟
每日圈数 13.134714 13.134677
Detailed Information
平衡模式:
三轴稳定
覆盖范围:
全球
运营商:
一网卫星公司
运营商所在国:
英国
制造商(研发单位):
一网卫星公司
制造商所在国:
英国
使用方式:
暂无
Satellite Introduction
OneWeb卫星网络由648颗重约125公斤的微型卫星组成,运行在1200公里的轨道上。 每颗卫星都能够提供至少每秒8千兆位的吞吐量,以使用其高吞吐量的Ku频段有效载荷为家庭和移动平台提供互联网接入。该卫星仍在工作。
2D Orbit Map
3D Orbit Map
Orbit Altitude Analysis Chart
Orbit Inclination Analysis Chart
Orbit Comprehensive Analysis Chart
View Comprehensive Chart